�������l�o���
Date,Time,MP-1(��Sv/h),MP-2(��Sv/h),MP-3(��Sv/h),MP-4(��Sv/h),MP-5(��Sv/h),MP-6(��Sv/h),MP-7(��Sv/h),MP-8(��Sv/h),����,����(m/s),���J
2020/05/11,00:00,0.702,1.000,0.668,1.228,0.879,0.402,0.699,0.657,�k��,2.8,��
2020/05/11,00:10,0.701,1.002,0.668,1.229,0.875,0.402,0.700,0.658,�k,2.0,��
2020/05/11,00:20,0.701,1.003,0.670,1.231,0.877,0.401,0.699,0.658,�k,2.6,��
2020/05/11,00:30,0.699,1.002,0.668,1.230,0.877,0.402,0.699,0.658,�k��,6.1,��
2020/05/11,00:40,0.701,1.003,0.668,1.232,0.878,0.402,0.700,0.657,���k��,6.1,��
2020/05/11,00:50,0.702,1.003,0.669,1.231,0.879,0.401,0.700,0.657,���k��,6.4,�L
2020/05/11,01:00,0.702,1.003,0.667,1.233,0.879,0.401,0.699,0.659,���k��,5.3,�L
2020/05/11,01:10,0.702,1.002,0.666,1.233,0.878,0.400,0.701,0.659,���k��,5.7,�L
2020/05/11,01:20,0.702,1.003,0.667,1.232,0.881,0.402,0.698,0.660,���k��,4.7,�L
2020/05/11,01:30,0.702,1.001,0.667,1.233,0.880,0.403,0.700,0.660,���k��,4.0,�L
2020/05/11,01:40,0.702,1.002,0.669,1.234,0.879,0.403,0.698,0.658,�k��,3.3,�L
2020/05/11,01:50,0.705,1.003,0.669,1.235,0.879,0.402,0.699,0.659,�k��,2.0,�L
2020/05/11,02:00,0.703,1.007,0.669,1.233,0.880,0.405,0.701,0.659,���k��,1.1,�L
2020/05/11,02:10,0.705,1.007,0.670,1.231,0.879,0.402,0.700,0.660,�k��,2.6,��
2020/05/11,02:20,0.702,1.007,0.670,1.235,0.880,0.402,0.701,0.660,�k��,5.8,��
2020/05/11,02:30,0.704,1.004,0.671,1.236,0.880,0.402,0.700,0.660,�k��,5.2,��
2020/05/11,02:40,0.705,1.007,0.667,1.232,0.880,0.402,0.698,0.659,�k��,6.7,��
2020/05/11,02:50,0.703,1.006,0.668,1.231,0.878,0.403,0.701,0.660,���k��,8.9,��
2020/05/11,03:00,0.704,1.005,0.669,1.232,0.878,0.401,0.699,0.658,���k��,7.7,��
2020/05/11,03:10,0.704,1.006,0.670,1.235,0.878,0.401,0.700,0.659,�k��,4.5,��
2020/05/11,03:20,0.702,1.005,0.668,1.234,0.878,0.402,0.700,0.658,�k��,4.9,��
2020/05/11,03:30,0.704,1.003,0.668,1.232,0.877,0.402,0.699,0.659,�k��,5.9,��
2020/05/11,03:40,0.704,1.004,0.669,1.233,0.878,0.401,0.699,0.657,�k��,7.0,��
2020/05/11,03:50,0.703,1.005,0.668,1.237,0.877,0.400,0.699,0.658,�k��,6.2,��
2020/05/11,04:00,0.704,1.002,0.668,1.233,0.880,0.400,0.701,0.659,�k,3.2,��
2020/05/11,04:10,0.700,1.004,0.669,1.235,0.879,0.400,0.700,0.658,�k,3.2,��
2020/05/11,04:20,0.702,1.004,0.670,1.233,0.877,0.401,0.698,0.658,�k,3.7,��
2020/05/11,04:30,0.703,1.002,0.669,1.232,0.877,0.400,0.700,0.658,�k,4.5,��
2020/05/11,04:40,0.700,1.003,0.670,1.234,0.879,0.400,0.700,0.658,�k,5.9,��
2020/05/11,04:50,0.700,1.005,0.670,1.236,0.878,0.399,0.698,0.656,�k,6.5,��
2020/05/11,05:00,0.701,1.003,0.669,1.235,0.879,0.398,0.699,0.658,�k,5.4,��
2020/05/11,05:10,0.700,1.004,0.668,1.233,0.879,0.399,0.698,0.657,�k,8.0,��
2020/05/11,05:20,0.700,1.003,0.670,1.235,0.877,0.398,0.698,0.658,�k,7.8,��
2020/05/11,05:30,0.702,1.005,0.667,1.233,0.881,0.399,0.699,0.658,�k,5.6,��
2020/05/11,05:40,0.702,1.005,0.666,1.236,0.881,0.400,0.698,0.657,�k,5.5,��
2020/05/11,05:50,0.705,1.004,0.671,1.238,0.880,0.398,0.700,0.659,�k�k��,5.5,��
2020/05/11,06:00,0.703,1.004,0.667,1.237,0.880,0.399,0.700,0.660,�k�k��,4.8,��
2020/05/11,06:10,0.702,1.004,0.669,1.234,0.881,0.399,0.700,0.659,�k�k��,4.9,��
2020/05/11,06:20,0.705,1.004,0.668,1.235,0.881,0.400,0.703,0.657,�k�k��,6.6,��
2020/05/11,06:30,0.704,1.005,0.668,1.235,0.880,0.398,0.701,0.660,�k�k��,5.7,��
2020/05/11,06:40,0.703,1.005,0.668,1.235,0.880,0.399,0.701,0.659,�k��,3.6,��
2020/05/11,06:50,0.703,1.006,0.668,1.236,0.880,0.398,0.701,0.657,�k,5.1,��
2020/05/11,07:00,0.702,1.005,0.670,1.234,0.877,0.399,0.698,0.658,�k,6.5,��
2020/05/11,07:10,0.703,1.004,0.670,1.234,0.880,0.399,0.701,0.659,�k�k��,5.7,��
2020/05/11,07:20,0.701,1.005,0.669,1.235,0.879,0.397,0.699,0.659,�k�k��,7.4,��
2020/05/11,07:30,0.703,1.005,0.669,1.237,0.880,0.399,0.700,0.659,�k�k��,6.2,��
2020/05/11,07:40,0.704,1.007,0.668,1.237,0.883,0.399,0.702,0.660,�k��,4.1,��
2020/05/11,07:50,0.704,1.008,0.667,1.236,0.880,0.399,0.700,0.657,�k��,4.6,��
2020/05/11,08:00,0.705,1.006,0.667,1.237,0.877,0.397,0.700,0.658,�k�k��,4.8,��
2020/05/11,08:10,0.703,1.006,0.670,1.237,0.879,0.398,0.702,0.659,�k��,5.3,��
2020/05/11,08:20,0.705,1.007,0.668,1.236,0.880,0.399,0.703,0.657,�k��,5.9,��
2020/05/11,08:30,0.706,1.006,0.668,1.239,0.880,0.399,0.703,0.659,�k��,4.9,��
2020/05/11,08:40,0.707,1.005,0.670,1.237,0.881,0.399,0.702,0.659,�k��,4.6,��
2020/05/11,08:50,0.707,1.005,0.669,1.237,0.882,0.399,0.702,0.657,���k��,6.4,��
2020/05/11,09:00,0.707,1.004,0.670,1.234,0.884,0.399,0.702,0.659,�k��,5.5,��
2020/05/11,09:10,0.708,1.006,0.670,1.240,0.880,0.400,0.703,0.660,�k��,5.1,��
2020/05/11,09:20,0.708,1.006,0.669,1.240,0.885,0.399,0.702,0.659,�k��,5.7,��
2020/05/11,09:30,0.706,1.004,0.671,1.239,0.885,0.399,0.702,0.659,�k��,7.3,��
2020/05/11,09:40,0.709,1.006,0.667,1.238,0.884,0.401,0.704,0.660,�k��,7.6,��
2020/05/11,09:50,0.708,1.005,0.670,1.238,0.885,0.400,0.702,0.658,�k��,6.1,��
2020/05/11,10:00,0.707,1.006,0.669,1.240,0.887,0.399,0.703,0.660,�k��,5.2,��
2020/05/11,10:10,0.710,1.008,0.672,1.239,0.886,0.400,0.703,0.661,���k��,3.5,��
2020/05/11,10:20,0.709,1.009,0.673,1.238,0.887,0.400,0.703,0.660,���k��,6.6,��
2020/05/11,10:30,0.709,1.007,0.671,1.240,0.887,0.400,0.704,0.660,���k��,9.8,��
2020/05/11,10:40,0.711,1.014,0.671,1.239,0.886,0.401,0.704,0.659,��,8.1,��
2020/05/11,10:50,0.709,1.008,0.671,1.239,0.887,0.401,0.704,0.661,��,8.6,��
2020/05/11,11:00,0.710,1.010,0.672,1.239,0.886,0.401,0.702,0.659,��,9.3,��
2020/05/11,11:10,0.712,1.012,0.672,1.239,0.888,0.402,0.704,0.661,��,8.2,��
2020/05/11,11:20,0.710,1.009,0.672,1.240,0.888,0.402,0.703,0.660,��,7.6,��
2020/05/11,11:30,0.712,1.012,0.673,1.241,0.887,0.402,0.703,0.660,��,10.7,��
2020/05/11,11:40,0.712,1.016,0.672,1.241,0.888,0.403,0.703,0.661,��,11.6,��
2020/05/11,11:50,0.713,1.014,0.673,1.240,0.888,0.404,0.702,0.661,��,8.4,��
2020/05/11,12:00,0.712,1.018,0.671,1.241,0.889,0.403,0.704,0.661,��,7.7,��
2020/05/11,12:10,0.714,1.016,0.673,1.244,0.890,0.405,0.704,0.661,���k��,6.4,��
2020/05/11,12:20,0.713,1.017,0.674,1.243,0.891,0.402,0.704,0.662,���k��,9.3,��
2020/05/11,12:30,0.714,1.017,0.673,1.244,0.892,0.404,0.704,0.660,��,7.0,��
2020/05/11,12:40,0.714,1.017,0.672,1.246,0.893,0.405,0.705,0.661,���k��,9.1,��
2020/05/11,12:50,0.714,1.019,0.676,1.242,0.892,0.405,0.705,0.661,��,11.6,��
2020/05/11,13:00,0.715,1.017,0.674,1.243,0.892,0.407,0.705,0.662,��,8.9,��
2020/05/11,13:10,0.715,1.018,0.674,1.244,0.893,0.404,0.705,0.660,��,8.3,��
2020/05/11,13:20,0.715,1.017,0.676,1.244,0.894,0.406,0.704,0.661,��,10.0,��
2020/05/11,13:30,0.716,1.018,0.676,1.247,0.893,0.404,0.705,0.662,���쐼,8.1,��
2020/05/11,13:40,0.716,1.016,0.675,1.246,0.894,0.405,0.706,0.662,��,9.1,��
2020/05/11,13:50,0.711,1.017,0.676,1.244,0.894,0.406,0.704,0.662,���쐼,8.8,��
2020/05/11,14:00,0.713,1.019,0.677,1.245,0.895,0.405,0.705,0.662,��,8.3,��
2020/05/11,14:10,0.715,1.018,0.677,1.248,0.895,0.405,0.706,0.662,��,8.3,��
2020/05/11,14:20,0.715,1.019,0.676,1.245,0.895,0.407,0.707,0.662,���쐼,5.0,��
2020/05/11,14:30,0.715,1.019,0.676,1.247,0.894,0.405,0.705,0.661,��,6.0,��
2020/05/11,14:40,0.712,1.018,0.675,1.246,0.897,0.403,0.705,0.662,��,8.5,��
2020/05/11,14:50,0.711,1.020,0.674,1.247,0.894,0.405,0.706,0.661,��,8.6,��
2020/05/11,15:00,0.712,1.019,0.675,1.248,0.896,0.404,0.704,0.661,��,9.7,��
2020/05/11,15:10,0.713,1.021,0.674,1.247,0.896,0.403,0.704,0.661,��,8.0,��
2020/05/11,15:20,0.711,1.027,0.675,1.248,0.897,0.404,0.705,0.661,��,9.1,��
2020/05/11,15:30,0.713,1.024,0.675,1.247,0.894,0.403,0.706,0.660,��쓌,11.4,��
2020/05/11,15:40,0.713,1.023,0.675,1.248,0.894,0.404,0.704,0.660,��쓌,10.5,��
2020/05/11,15:50,0.711,1.023,0.676,1.247,0.897,0.404,0.705,0.660,��쓌,11.9,��
2020/05/11,16:00,0.713,1.022,0.676,1.246,0.895,0.405,0.705,0.660,��,10.8,��
2020/05/11,16:10,0.711,1.023,0.673,1.244,0.896,0.404,0.705,0.661,��,13.0,��
2020/05/11,16:20,0.710,1.023,0.674,1.247,0.895,0.403,0.705,0.660,��,14.4,��
2020/05/11,16:30,0.712,1.025,0.677,1.246,0.896,0.404,0.704,0.662,��쓌,13.8,��
2020/05/11,16:40,0.714,1.026,0.675,1.247,0.896,0.404,0.705,0.660,��,12.7,��
2020/05/11,16:50,0.712,1.024,0.677,1.250,0.895,0.405,0.703,0.661,��,12.0,��
2020/05/11,17:00,0.714,1.023,0.676,1.249,0.896,0.404,0.706,0.661,��,9.6,��
2020/05/11,17:10,0.713,1.024,0.674,1.248,0.897,0.406,0.703,0.662,��,8.8,��
2020/05/11,17:20,0.712,1.026,0.674,1.248,0.895,0.405,0.705,0.660,��쓌,12.4,��
2020/05/11,17:30,0.712,1.023,0.675,1.247,0.896,0.405,0.704,0.661,��,9.9,��
2020/05/11,17:40,0.711,1.022,0.677,1.247,0.896,0.407,0.704,0.661,��,8.9,��
2020/05/11,17:50,0.713,1.025,0.675,1.246,0.896,0.405,0.704,0.661,��,8.5,��
2020/05/11,18:00,0.713,1.024,0.673,1.247,0.897,0.404,0.705,0.661,��쐼,7.6,��
2020/05/11,18:10,0.712,1.026,0.675,1.249,0.894,0.404,0.703,0.663,��쐼,7.0,��
2020/05/11,18:20,0.713,1.027,0.676,1.247,0.895,0.405,0.703,0.663,��쐼,7.5,��
2020/05/11,18:30,0.713,1.026,0.673,1.247,0.894,0.406,0.703,0.663,�쐼,7.2,��
2020/05/11,18:40,0.712,1.028,0.674,1.248,0.897,0.406,0.703,0.664,���쐼,3.7,��
2020/05/11,18:50,0.712,1.027,0.675,1.252,0.899,0.407,0.702,0.663,���쐼,2.0,��
2020/05/11,19:00,0.713,1.027,0.675,1.251,0.896,0.406,0.703,0.664,�쐼,1.2,��
2020/05/11,19:10,0.714,1.027,0.676,1.250,0.897,0.407,0.705,0.663,���k��,2.5,��
2020/05/11,19:20,0.715,1.028,0.677,1.249,0.897,0.407,0.705,0.663,���쐼,3.7,��
2020/05/11,19:30,0.717,1.028,0.677,1.250,0.896,0.406,0.708,0.663,���쐼,4.6,��
2020/05/11,19:40,0.715,1.028,0.676,1.248,0.897,0.407,0.706,0.662,�쐼,2.6,��
2020/05/11,19:50,0.719,1.029,0.679,1.247,0.899,0.407,0.706,0.663,��,3.3,��
2020/05/11,20:00,0.717,1.025,0.680,1.251,0.898,0.407,0.706,0.665,��,3.1,��
2020/05/11,20:10,0.716,1.027,0.677,1.252,0.897,0.406,0.706,0.662,��,2.3,��
2020/05/11,20:20,0.715,1.027,0.678,1.251,0.898,0.407,0.706,0.663,���쐼,2.2,��
2020/05/11,20:30,0.713,1.026,0.677,1.252,0.896,0.408,0.706,0.662,���k��,1.7,��
2020/05/11,20:40,0.714,1.029,0.678,1.250,0.898,0.407,0.706,0.663,��,1.7,��
2020/05/11,20:50,0.715,1.028,0.675,1.252,0.896,0.406,0.706,0.662,��,2.0,��
2020/05/11,21:00,0.715,1.027,0.679,1.249,0.897,0.407,0.706,0.664,��,2.6,��
2020/05/11,21:10,0.714,1.025,0.676,1.250,0.897,0.407,0.706,0.664,��,3.8,��
2020/05/11,21:20,0.716,1.025,0.677,1.251,0.898,0.407,0.706,0.665,��,4.6,��
2020/05/11,21:30,0.716,1.027,0.679,1.249,0.898,0.406,0.706,0.663,��,5.3,��
2020/05/11,21:40,0.716,1.027,0.676,1.252,0.897,0.407,0.708,0.664,���쐼,5.1,��
2020/05/11,21:50,0.715,1.027,0.675,1.251,0.897,0.405,0.708,0.663,���쐼,5.2,��
2020/05/11,22:00,0.715,1.025,0.678,1.249,0.896,0.406,0.708,0.663,��,3.1,��
2020/05/11,22:10,0.714,1.027,0.677,1.251,0.898,0.406,0.706,0.663,��쐼,3.5,��
2020/05/11,22:20,0.715,1.025,0.675,1.252,0.899,0.405,0.706,0.665,���쐼,3.6,��
2020/05/11,22:30,0.715,1.026,0.677,1.250,0.896,0.406,0.707,0.664,���쐼,3.0,��
2020/05/11,22:40,0.712,1.026,0.676,1.250,0.897,0.406,0.707,0.664,���쐼,2.5,��
2020/05/11,22:50,0.715,1.027,0.677,1.251,0.900,0.406,0.706,0.662,��,3.6,��
2020/05/11,23:00,0.712,1.026,0.676,1.249,0.897,0.406,0.705,0.664,��,4.3,��
2020/05/11,23:10,0.714,1.026,0.675,1.251,0.895,0.405,0.705,0.663,��,4.2,��
2020/05/11,23:20,0.711,1.025,0.677,1.250,0.895,0.405,0.708,0.664,�k��,3.6,��
2020/05/11,23:30,0.714,1.026,0.676,1.250,0.898,0.406,0.705,0.663,��,1.7,��
2020/05/11,23:40,0.715,1.028,0.677,1.250,0.897,0.406,0.706,0.663,��,1.9,��
2020/05/11,23:50,0.711,1.027,0.677,1.249,0.895,0.406,0.705,0.664,��,1.1,��
